KR4BRU Weather Reports


time (UTC)temp
C
wind
direction
speed
KPH
gust
KPH
rain 1hr
cm
rain 24hr
cm
rain mn
cm
humidity
%
barometer
mb
20260906140414 31 258 1.6 3.2 0.00 0.00 0.00 59 1010.4
20260906135412 31 294 1.6 3.2 0.00 0.00 0.00 65 1010.3
20260906134409 31 286 1.6 3.2 0.00 0.00 0.00 67 1010.1
20260906133405 30 275 1.6 1.6 0.00 0.00 0.00 72 1010.3
20260906132401 29 298 0.0 1.6 0.00 0.00 0.00 72 1010.5
20260906131358 28 283 0.0 1.6 0.00 0.00 0.00 75 1010.5
20260906130354 27 42 0.0 1.6 0.00 0.00 0.00 82 1010.6
20260906125350 25 19 0.0 3.2 0.00 0.00 0.00 88 1010.5
20260906124347 24 327 0.0 1.6 0.00 0.00 0.00 89 1010.6
20260906123346 24 20 1.6 3.2 0.00 0.00 0.00 89 1010.5
20260906122347 23 336 0.0 1.6 0.00 0.00 0.00 89 1010.3
20260906121345 23 5 0.0 1.6 0.00 0.00 0.00 89 1010.1
20260906120342 23 220 0.0 0.0 0.00 0.00 0.00 89 1010.0
20260906115339 23 324 1.6 3.2 0.00 0.00 0.00 89 1010.0
20260906114334 23 298 0.0 1.6 0.00 0.00 0.00 88 1009.9
20260906113334 23 307 3.2 3.2 0.00 0.00 0.00 88 1009.9
20260906112331 23 19 0.0 3.2 0.00 0.00 0.00 88 1009.6
20260906111331 23 329 1.6 3.2 0.00 0.00 0.00 88 1009.5
20260906110328 23 72 0.0 3.2 0.00 0.00 0.00 88 1009.2
20260906105329 23 69 0.0 1.6 0.00 0.00 0.00 87 1009.1
20260906104323 23 6 0.0 1.6 0.00 0.00 0.00 87 1009.2
20260906103320 23 214 1.6 3.2 0.00 0.00 0.00 87 1009.2
20260906102315 23 283 0.0 1.6 0.00 0.00 0.00 86 1009.1
20260906101312 23 349 0.0 1.6 0.00 0.00 0.00 86 1009.0
20260906100306 23 44 0.0 1.6 0.00 0.00 0.00 86 1009.1
20260906095305 24 25 0.0 1.6 0.00 0.00 0.00 85 1009.2
20260906094302 24 309 1.6 3.2 0.00 0.00 0.00 85 1009.3
20260906093300 24 348 0.0 3.2 0.00 0.00 0.00 86 1009.3
20260906092255 24 324 3.2 3.2 0.00 0.00 0.00 86 1009.3
20260906091253 24 310 0.0 3.2 0.00 0.00 0.00 85 1009.5
20260906090248 24 315 0.0 1.6 0.00 0.00 0.00 85 1009.6
20260906085247 24 33 0.0 3.2 0.00 0.00 0.00 85 1009.7
20260906084248 24 36 1.6 1.6 0.00 0.00 0.00 86 1010.0
20260906083244 24 290 0.0 3.2 0.00 0.00 0.00 87 1010.0
20260906082240 24 1 0.0 3.2 0.00 0.00 0.00 88 1010.3
20260906081237 24 33 1.6 3.2 0.00 0.00 0.00 88 1010.0
20260906080236 24 22 0.0 1.6 0.00 0.00 0.00 88 1010.3
20260906075235 24 53 0.0 1.6 0.00 0.00 0.00 88 1009.8
20260906074230 24 218 0.0 1.6 0.00 0.00 0.00 88 1009.5
20260906073231 24 307 0.0 1.6 0.00 0.00 0.00 88 1009.1
20260906072228 24 356 1.6 3.2 0.00 0.00 0.00 88 1009.1
20260906071224 24 316 0.0 3.2 0.00 0.00 0.00 87 1009.3
20260906070221 24 297 0.0 3.2 0.00 0.00 0.00 88 1009.6
20260906065216 24 132 3.2 4.8 0.00 0.00 0.00 89 1010.1
20260906064213 23 310 0.0 3.2 0.00 0.00 0.00 89 1009.8
20260906063209 23 267 0.0 1.6 0.00 0.00 0.00 89 1009.7
20260906062209 23 295 0.0 3.2 0.00 0.00 0.00 89 1009.9
20260906061207 23 56 0.0 1.6 0.00 0.00 0.00 89 1009.7
20260906060206 23 295 1.6 3.2 0.00 0.00 0.00 90 1009.6
20260906055202 23 29 0.0 3.2 0.00 0.00 0.00 89 1009.6
20260906054157 23 309 0.0 1.6 0.00 0.00 0.00 89 1009.5
20260906053155 23 197 0.0 1.6 0.00 0.00 0.00 89 1009.7
20260906052153 23 16 3.2 3.2 0.00 0.00 0.00 89 1009.8
20260906051149 23 240 0.0 1.6 0.00 0.00 0.00 89 1009.6
20260906050145 23 300 0.0 1.6 0.00 0.00 0.00 89 1009.6
20260906045145 23 280 0.0 3.2 0.00 0.00 0.00 89 1009.6
20260906044142 23 265 0.0 3.2 0.00 0.00 0.00 89 1010.0
20260906043139 23 306 0.0 1.6 0.00 0.00 0.00 89 1010.3
20260906042139 23 336 0.0 3.2 0.00 0.00 0.00 89 1010.0
20260906041135 23 314 0.0 1.6 0.00 0.00 0.00 89 1010.1
20260906040132 23 310 0.0 3.2 0.00 0.00 0.00 89 1010.1
20260906035129 24 302 0.0 1.6 0.00 0.00 0.00 89 1010.1
20260906034129 24 308 0.0 1.6 0.00 0.00 0.00 89 1010.0
20260906033126 24 294 0.0 1.6 0.00 0.00 0.00 89 1010.1
20260906032122 24 335 0.0 1.6 0.00 0.00 0.00 89 1010.5
20260906031119 24 47 3.2 3.2 0.00 0.00 0.00 89 1010.1
20260906030119 24 322 0.0 1.6 0.00 0.00 0.00 89 1010.5
20260906025117 25 137 0.0 1.6 0.00 0.00 0.00 89 1010.3
20260906024113 25 304 0.0 0.0 0.00 0.00 0.00 89 1009.9
20260906023109 25 305 0.0 3.2 0.00 0.00 0.00 89 1009.5
20260906022106 25 333 0.0 1.6 0.00 0.00 0.00 89 1009.5
20260906021100 25 314 1.6 3.2 0.00 0.00 0.00 89 1009.5
20260906020100 25 333 0.0 1.6 0.00 0.00 0.00 88 1009.6
20260906015059 25 323 0.0 3.2 0.00 0.00 0.00 89 1009.4
20260906014056 25 326 0.0 1.6 0.00 0.00 0.00 88 1009.3
20260906013052 25 279 0.0 1.6 0.00 0.00 0.00 88 1009.1
20260906012053 25 315 0.0 3.2 0.00 0.00 0.00 88 1008.9
20260906011048 25 308 1.6 3.2 0.00 0.00 0.00 88 1009.0
20260906010046 25 278 0.0 3.2 0.00 0.00 0.00 87 1009.0
20260906005044 25 326 0.0 1.6 0.00 0.00 0.00 87 1008.9
20260906004045 25 321 0.0 1.6 0.00 0.00 0.00 87 1008.8
20260906003042 25 336 1.6 1.6 0.00 0.00 0.00 87 1008.7
20260906002037 25 309 0.0 0.0 0.00 0.00 0.00 86 1008.9
20260906001032 25 312 0.0 3.2 0.00 0.00 0.00 86 1008.8
20260906000030 26 329 0.0 0.0 0.00 0.00 0.00 85 1008.8
20260905235024 26 312 0.0 3.2 0.00 0.00 0.00 84 1009.0
20260905234020 26 322 0.0 1.6 0.00 0.00 0.00 83 1009.0
20260905233021 26 327 0.0 1.6 0.00 0.00 0.00 83 1008.9
20260905232018 26 329 0.0 1.6 0.00 0.00 0.00 83 1009.0
20260905231015 26 311 0.0 1.6 0.00 0.00 0.00 82 1008.6
20260905230012 26 9 1.6 3.2 0.00 0.00 0.00 83 1008.6
20260905225008 27 315 0.0 3.2 0.00 0.00 0.00 84 1008.5
20260905224008 27 302 3.2 3.2 0.00 0.00 0.00 84 1008.5
20260905195921 38 227 3.2 6.4 0.00 0.00 0.00 38 1009.7
20260905194918 38 227 3.2 6.4 0.00 0.00 0.00 38 1009.7
20260905193917 38 43 3.2 4.8 0.00 0.00 0.00 33 1009.3
20260905192913 41 10 1.6 4.8 0.00 0.00 0.00 30 1009.1
20260905191908 40 244 4.8 6.4 0.00 0.00 0.00 32 1009.1
20260905190908 39 272 3.2 3.2 0.00 0.00 0.00 36 1009.0
20260905185904 40 174 3.2 3.2 0.00 0.00 0.00 33 1009.4
20260905184904 40 335 0.0 3.2 0.00 0.00 0.00 32 1009.8
20260905183903 40 198 3.2 4.8 0.00 0.00 0.00 31 1009.5
20260905182859 40 199 0.0 4.8 0.00 0.00 0.00 34 1009.6
20260905181854 39 330 1.6 4.8 0.00 0.00 0.00 34 1009.8
20260905180853 38 262 0.0 3.2 0.00 0.00 0.00 43 1010.1
20260905175849 37 253 3.2 3.2 0.00 0.00 0.00 44 1010.1
20260905174850 37 358 1.6 4.8 0.00 0.00 0.00 37 1010.0
20260905173847 38 26 1.6 4.8 0.00 0.00 0.00 37 1010.0
20260905172843 38 356 3.2 4.8 0.00 0.00 0.00 38 1010.4
20260905171843 40 7 3.2 4.8 0.00 0.00 0.00 35 1010.5
20260905170842 38 321 3.2 4.8 0.00 0.00 0.00 38 1010.7
20260905165837 38 4 3.2 4.8 0.00 0.00 0.00 38 1010.6
20260905164832 38 130 3.2 3.2 0.00 0.00 0.00 43 1010.5
20260905163828 37 349 3.2 3.2 0.00 0.00 0.00 43 1011.0
20260905162826 38 281 0.0 4.8 0.00 0.00 0.00 44 1011.2
20260905161826 37 67 3.2 4.8 0.00 0.00 0.00 45 1011.2
20260905160824 36 347 0.0 4.8 0.00 0.00 0.00 47 1011.1
20260905155819 36 226 1.6 3.2 0.00 0.00 0.00 47 1011.3
20260905154819 36 342 3.2 3.2 0.00 0.00 0.00 45 1011.3
20260905153815 36 253 0.0 4.8 0.00 0.00 0.00 49 1011.6
20260905152811 35 193 4.8 4.8 0.00 0.00 0.00 53 1011.5
20260905151812 35 305 3.2 3.2 0.00 0.00 0.00 55 1011.7
20260905150807 34 56 1.6 4.8 0.00 0.00 0.00 53 1011.7
20260905145804 35 130 0.0 3.2 0.00 0.00 0.00 55 1011.6
20260905144803 33 316 0.0 3.2 0.00 0.00 0.00 61 1011.9
20260905143803 33 305 0.0 3.2 0.00 0.00 0.00 59 1011.8
20260905142803 33 132 3.2 3.2 0.00 0.00 0.00 57 1011.9
20260905141759 33 304 1.6 3.2 0.00 0.00 0.00 60 1011.9
20260905140756 32 273 3.2 3.2 0.00 0.00 0.00 62 1011.9